Погода в Чаваньге

Россия / Мурманская область     66˚06′33″N   37˚45′34″E
темп.,
°C
ветер,
м/с
пор.,
м/с
влажн.,
%
обл.,
%
осадки,
мм/ч
давл.,
гПа
погр.,
м
16 января, сб
сб1600:00−9˚с328593 0.0 1016245
03:00−9˚с228794 0.1 1017217
06:00−7˚ссз238999 0.1 1016263
09:00−7˚зсз019199 0.2 1016198
12:00−5˚з4486100 0.1 1016503
15:00−5˚зюз3486100 0.2 1015501
18:00−5˚зюз4588100 0.1 1013533
21:00−4˚зюз4588100 0.2 1012433
17 января, вс
вс1700:00−4˚з5690100 0.2 1009443
03:00−4˚зсз6895100 0.5 1008393
06:00−3˚зсз6791100 0.5 1006318
09:00−3˚сз6886100 0.5 1005322
12:00−3˚сз6985100 0.0 1005338
15:00−3˚ссз698699 0.1 1005375
18:00−4˚св4589100 0.1 1006244
21:00−4˚св587998 0.1 1007315
18 января, пн
пн1800:00−6˚св687887 0.0 1009316
03:00−9˚всв678593 0.0 1010329
06:00−9˚в6792100 0.0 1010367
09:00−9˚вюв6689100 0.0 1011400
12:00−9˚юв6792100 0.0 1011441
15:00−8˚ю7891100 0.1 1010457
18:00−6˚ююз81094100 0.6 1008506
21:00−5˚юз8994100 1.3 1007524
19 января, вт
вт1900:00−4˚зюз81095100 1.6 1006557
03:00−3˚зюз81094100 3.1 1005607
06:00−4˚зюз81092100 0.8 1004631
09:00−4˚зюз8988100 1.1 1004656
12:00−5˚зюз7890100 0.4 1004638
15:00−5˚з6786100 0.8 1004627
18:00−5˚з4585100 0.1 1003594
21:00−5˚зюз3485100 0.2 1004521
20 января, ср
ср2000:00−5˚з3384100 0.1 1004472
03:00−5˚зюз3386100 0.2 1004388
06:00−5˚сз1185100 0.1 1005276
09:00−6˚в3391100 0.3 1005234
12:00−8˚св4592100 0.1 1007199
15:00−9˚св448899 0.2 1007177
18:00−9˚всв4590100 0.0 1008228
21:00−8˚в6892100 0.1 1008409